User: anonymous   Login
Location: Unspecified
(0.0000°N, 0.0000°E)
Time: 14:50:21
(UTC+00:00)
Language:

STRAND 1 - Orbit

View from above orbital plane
View from above orbital plane
View from above satellite
View from above satellite

Ground track
Ground track

The orbit data is extracted from the following two-line orbital elements,

1 39090U 13009E   17206.16321533 +.00000022 +00000-0 +23087-4 0  9992
2 39090 098.5513 051.2387 0009072 180.3267 179.7914 14.34974843230904
Epoch (UTC): 25 July 2017 03:55:01
Eccentricity: 0.0009072
inclination: 98.5513°
perigee height: 768 km
apogee height: 781 km
right ascension of ascending node: 51.2387°
argument of perigee: 180.3267°
revolutions per day: 14.34974843
mean anomaly at epoch: 179.7914°
orbit number at epoch: 23090

The dashed part of the orbit path shows where the satellite is in the earth's shadow,  

DLR